SICH-1
1 23657U 95046A   06172.73818940  .00000092  00000-0  87441-5 0 07801
2 23657 082.5284 053.6568 0024160 352.5357 007.5473 14.81365748582660
NOAA-15
1 25338U 98030A   06173.15096886  .00000056  00000-0  42446-4 0  5554
2 25338 098.5145 175.3047 0010667 005.9687 354.1611 14.24586907421427
RESURS
1 25394U 98043A   06172.78100105  .00000023  00000-0  28429-4 0 04107
2 25394 098.4927 235.5168 0001639 126.8027 233.3303 14.24104372413057
FENGYUN1
1 25730U 99025A   06172.58670183 -.00000015  00000-0  14966-4 0 07586
2 25730 098.6245 164.9670 0015046 125.4782 234.7775 14.11812843366633
OKEAN-0
1 25860U 99039A   06173.50816463  .00000069  00000-0  17930-4 0  7808
2 25860 097.7319 187.5941 0001940 083.4362 276.7069 14.73371410372532
NOAA-16
1 26536U 00055A   06173.17538937  .00000396  00000-0  23984-3 0  9281
2 26536 099.0654 139.8516 0011403 104.5102 255.7342 14.12350552296285
NOAA-17
1 27453U 02032A   06173.37156297  .00000212  00000-0  11144-3 0  9477
2 27453 098.6208 245.4832 0012657 063.3335 296.9151 14.23788161207517
NOAA-18
1 28654U 05018A   06173.31291744  .00000235  00000-0  15498-3 0  5274
2 28654 098.7860 116.4791 0013792 204.1418 155.9110 14.10970134 56100
HUBBLE
1 20580U 90037B   06172.95269636  .00000437  00000-0  21196-4 0 06406
2 20580 028.4683 018.8212 0004026 228.8099 131.2146 15.00055276685817
UARS
1 21701U 91063B   06172.97644644  .00002131  00000-0  47209-4 0 08004
2 21701 056.9786 071.7953 0101006 215.4960 143.9348 15.43802330810045
PO-34
1 25520U 98064B   06172.82252734  .00000569  00000-0  18469-4 0 04986
2 25520 028.4579 000.1367 0005239 287.5196 072.4826 15.16734800422759
ISS
1 25544U 98067A   06173.74530093  .00005085  00000-0  36378-4 0  1595
2 25544 051.6295 158.8512 0010083 355.3496 001.9348 15.75809987434035
OO-38
1 26063U 00004C   06173.72881767  .00000007  00000-0  22504-4 0  6489
2 26063 100.1890 105.7662 0037314 091.4881 269.0583 14.35769191335464
NO-45
1 26932U 01043D   06173.82209960 -.00000070  00000-0  50563-5 0  3449
2 26932 067.0529 352.8735 0008771 254.4464 105.5669 14.29527906246771
UWE-1
1 28892U 05043C   06173.75039304  .00000064  00000-0  23350-4 0  4823
2 28892 098.1627 071.8776 0017636 150.4022 209.8190 14.59364591 34785
CO-58
1 28895U 05043F   06173.74135002 -.00000073  00000-0 -56305-5 0  4657
2 28895 098.1656 071.9510 0018110 150.2584 209.9667 14.59417106 34664
NCUBE2
1 28897U 05043H   06172.62117913  .00000153  00000-0  41819-4 0 00843
2 28897 098.1647 070.8368 0017066 156.3224 203.8752 14.59572867026779
